Flag for Italy Weather past 2 weeks in Bologna, Italy

34 °F

Passing clouds.

Feels Like: 31 °F
Forecast: 39 / 47 °F
Wind: 3 mph from Southwest

Location: Bologna / Borgo Panigale

Current Time: Nov 30, 2015 at 2:59:09 AM

Latest Report: Nov 30, 2015 at 1:50 AM

Visibility: N/A

Pressure: 30.30 "Hg

Humidity: 100%

Dew point: 34 °F

Location of BolognaLocation

Historic Weather in Bologna — Graph


Bologna temperature yesterday

Maximum temperature yesterday: 46 °F (at 1:20 PM)
Minimum temperature yesterday: 30 °F (at 2:50 AM)
Average temperature yesterday: 38 °F

Past Weeks' High & Low Weather Summary

High57 °F (Nov 19, 1:50 PM)100% (Nov 15, 3:50 AM)30.30 "Hg (Nov 15, 3:50 AM)
Low30 °F (Nov 29, 2:50 AM)50% (Nov 27, 12:20 PM)29.18 "Hg (Nov 21, 2:50 PM)
Average45 °F87%29.97 "Hg
* Reported Nov 15 1:20 AM — Nov 30 1:20 AM, Bologna, Weather by CustomWeather, © 2015

Note: Actual official high and low records may vary slightly from our data, if they occured in-between our weather recording intervals... More about our weather records


Bologna weather history for previous 24 hours

Time TempWeatherWind HumidityBarometerVisibility
1:20 AM
Mon, Nov 30
34 °FClear.3 mph93%30.27 "Hg10 mi
12:50 AM34 °FClear.3 mph100%30.30 "Hg10 mi
11:50 PM
Sun, Nov 29
36 °FClear.5 mph93%30.30 "Hg10 mi
11:20 PM37 °FClear.2 mph93%30.27 "Hg10 mi
10:50 PM37 °FClear.2 mph87%30.27 "Hg10 mi
10:20 PM37 °FPassing clouds.3 mph93%30.27 "HgN/A
9:50 PM37 °FClear.6 mph93%30.27 "Hg10 mi
9:20 PM37 °FPassing clouds.6 mph93%30.27 "HgN/A
8:50 PM37 °FClear.3 mph87%30.27 "Hg10 mi
8:20 PM37 °FClear.2 mph87%30.27 "Hg10 mi
7:50 PM37 °FClear.2 mph93%30.27 "Hg10 mi
7:20 PM36 °FClear.No wind93%30.27 "Hg10 mi
6:50 PM37 °FClear.1 mph93%30.27 "Hg10 mi
6:20 PM37 °FClear.1 mph87%30.24 "Hg10 mi
5:50 PM39 °FClear.2 mph87%30.24 "Hg10 mi
5:20 PM39 °FClear.2 mph87%30.24 "Hg10 mi
4:50 PM41 °FClear.2 mph81%30.24 "Hg10 mi
4:20 PM43 °FSunny.No wind76%30.24 "Hg10 mi
3:50 PM45 °FSunny.2 mph71%30.21 "Hg10 mi
3:20 PM46 °FSunny.2 mph66%30.21 "Hg10 mi
2:50 PM46 °FPassing clouds.3 mph71%30.24 "HgN/A
2:20 PM46 °FPassing clouds.5 mph71%30.24 "HgN/A
1:50 PM46 °FPassing clouds.5 mph71%30.24 "HgN/A
1:20 PM46 °FPassing clouds.3 mph71%30.24 "HgN/A
12:50 PM45 °FPassing clouds.5 mph71%30.24 "HgN/A
12:20 PM45 °FPassing clouds.3 mph71%30.24 "HgN/A
11:50 AM45 °FPassing clouds.3 mph71%30.27 "HgN/A
11:20 AM43 °FPassing clouds.3 mph71%30.27 "HgN/A
10:50 AM43 °FSunny.2 mph76%30.27 "Hg10 mi
10:20 AM39 °FSunny.1 mph81%30.27 "Hg10 mi
9:50 AM37 °FPassing clouds.3 mph87%30.27 "HgN/A
9:20 AM36 °FSunny.2 mph87%30.27 "Hg10 mi
8:50 AM34 °FSunny.2 mph87%30.27 "Hg10 mi
7:50 AM32 °FSunny.5 mph93%30.24 "Hg10 mi
7:20 AM34 °FClear.2 mph87%30.21 "Hg10 mi
6:50 AM36 °FClear.5 mph87%30.18 "Hg10 mi
5:50 AM34 °FClear.7 mph87%30.18 "Hg10 mi
5:20 AM32 °FPassing clouds.3 mph93%30.18 "HgN/A
4:50 AM32 °FClear.5 mph93%30.18 "Hg10 mi
4:20 AM32 °FPassing clouds.3 mph93%30.18 "HgN/A
3:50 AM30 °FClear.No wind93%30.15 "Hg10 mi
3:20 AM32 °FClear.1 mph93%30.15 "Hg10 mi
2:50 AM30 °FClear.3 mph93%30.15 "Hg10 mi
2:20 AM34 °FClear.2 mph87%30.15 "Hg10 mi
Weather by CustomWeather, © 2015

See weather overviewHow to use our weather pages